#datetime,building,power
2023-09-26T00:00:00,mfh,22.67
2023-09-26T00:01:00,mfh,22.44
2023-09-26T00:02:00,mfh,22.02
2023-09-26T00:03:00,mfh,22.06
2023-09-26T00:04:00,mfh,23.36
2023-09-26T00:05:00,mfh,22.68
2023-09-26T00:06:00,mfh,22.67
2023-09-26T00:07:00,mfh,22.82
2023-09-26T00:08:00,mfh,22.72
2023-09-26T00:09:00,mfh,22.25
2023-09-26T00:10:00,mfh,22.14
2023-09-26T00:11:00,mfh,22.05
2023-09-26T00:12:00,mfh,21.98
2023-09-26T00:13:00,mfh,22.53
2023-09-26T00:14:00,mfh,22.69
2023-09-26T00:15:00,mfh,22.62
2023-09-26T00:16:00,mfh,22.60
2023-09-26T00:17:00,mfh,21.98
2023-09-26T00:18:00,mfh,22.37
2023-09-26T00:19:00,mfh,21.97
2023-09-26T00:20:00,mfh,23.32
2023-09-26T00:21:00,mfh,24.07
2023-09-26T00:22:00,mfh,24.93
2023-09-26T00:23:00,mfh,24.35
2023-09-26T00:24:00,mfh,24.37
2023-09-26T00:25:00,mfh,24.42
2023-09-26T00:26:00,mfh,24.32
2023-09-26T00:27:00,mfh,23.87
2023-09-26T00:28:00,mfh,22.01
2023-09-26T00:29:00,mfh,22.63
2023-09-26T00:30:00,mfh,22.64
2023-09-26T00:31:00,mfh,22.67
2023-09-26T00:32:00,mfh,22.66
2023-09-26T00:33:00,mfh,22.67
2023-09-26T00:34:00,mfh,23.71
2023-09-26T00:35:00,mfh,23.05
2023-09-26T00:36:00,mfh,22.99
2023-09-26T00:37:00,mfh,22.98
2023-09-26T00:38:00,mfh,23.61
2023-09-26T00:39:00,mfh,23.53
2023-09-26T00:40:00,mfh,21.75
2023-09-26T00:41:00,mfh,21.76
2023-09-26T00:42:00,mfh,21.80
2023-09-26T00:43:00,mfh,21.17
2023-09-26T00:44:00,mfh,21.03
2023-09-26T00:45:00,mfh,21.03
2023-09-26T00:46:00,mfh,20.91
2023-09-26T00:47:00,mfh,22.36
2023-09-26T00:48:00,mfh,21.68
2023-09-26T00:49:00,mfh,21.47
2023-09-26T00:50:00,mfh,21.55
2023-09-26T00:51:00,mfh,21.68
2023-09-26T00:52:00,mfh,21.06
2023-09-26T00:53:00,mfh,21.05
2023-09-26T00:54:00,mfh,20.97
2023-09-26T00:55:00,mfh,21.66
2023-09-26T00:56:00,mfh,21.76
2023-09-26T00:57:00,mfh,21.72
2023-09-26T00:58:00,mfh,21.64
2023-09-26T00:59:00,mfh,21.77
2023-09-26T01:00:00,mfh,20.96
2023-09-26T01:01:00,mfh,20.77
2023-09-26T01:02:00,mfh,20.77
2023-09-26T01:03:00,mfh,20.76
2023-09-26T01:04:00,mfh,21.55
2023-09-26T01:05:00,mfh,21.57
2023-09-26T01:06:00,mfh,22.18
2023-09-26T01:07:00,mfh,21.57
2023-09-26T01:08:00,mfh,21.09
2023-09-26T01:09:00,mfh,21.29
2023-09-26T01:10:00,mfh,21.47
2023-09-26T01:11:00,mfh,21.24
2023-09-26T01:12:00,mfh,21.79
2023-09-26T01:13:00,mfh,21.72
2023-09-26T01:14:00,mfh,21.46
2023-09-26T01:15:00,mfh,21.48
2023-09-26T01:16:00,mfh,21.44
2023-09-26T01:17:00,mfh,20.82
2023-09-26T01:18:00,mfh,20.89
2023-09-26T01:19:00,mfh,20.82
2023-09-26T01:20:00,mfh,21.35
2023-09-26T01:21:00,mfh,21.34
2023-09-26T01:22:00,mfh,21.43
2023-09-26T01:23:00,mfh,21.46
2023-09-26T01:24:00,mfh,21.67
2023-09-26T01:25:00,mfh,21.77
2023-09-26T01:26:00,mfh,20.93
2023-09-26T01:27:00,mfh,21.24
2023-09-26T01:28:00,mfh,20.75
2023-09-26T01:29:00,mfh,21.44
2023-09-26T01:30:00,mfh,21.55
2023-09-26T01:31:00,mfh,21.49
2023-09-26T01:32:00,mfh,21.47
2023-09-26T01:33:00,mfh,21.45
2023-09-26T01:34:00,mfh,20.64
2023-09-26T01:35:00,mfh,20.96
2023-09-26T01:36:00,mfh,20.63
2023-09-26T01:37:00,mfh,21.36
2023-09-26T01:38:00,mfh,21.37
2023-09-26T01:39:00,mfh,21.35
2023-09-26T01:40:00,mfh,21.38
2023-09-26T01:41:00,mfh,21.65
2023-09-26T01:42:00,mfh,21.05
2023-09-26T01:43:00,mfh,20.96
2023-09-26T01:44:00,mfh,20.94
2023-09-26T01:45:00,mfh,21.33
2023-09-26T01:46:00,mfh,21.49
2023-09-26T01:47:00,mfh,21.40
2023-09-26T01:48:00,mfh,21.36
2023-09-26T01:49:00,mfh,21.35
2023-09-26T01:50:00,mfh,20.95
2023-09-26T01:51:00,mfh,20.86
2023-09-26T01:52:00,mfh,20.71
2023-09-26T01:53:00,mfh,20.70
2023-09-26T01:54:00,mfh,20.69
2023-09-26T01:55:00,mfh,21.32
2023-09-26T01:56:00,mfh,21.46
2023-09-26T01:57:00,mfh,21.42
2023-09-26T01:58:00,mfh,21.48
2023-09-26T01:59:00,mfh,22.03
2023-09-26T02:00:00,mfh,20.86
2023-09-26T02:01:00,mfh,20.80
2023-09-26T02:02:00,mfh,20.80
2023-09-26T02:03:00,mfh,21.41
2023-09-26T02:04:00,mfh,21.19
2023-09-26T02:05:00,mfh,21.23
2023-09-26T02:06:00,mfh,21.62
2023-09-26T02:07:00,mfh,20.54
2023-09-26T02:08:00,mfh,20.52
2023-09-26T02:09:00,mfh,20.57
2023-09-26T02:10:00,mfh,20.60
2023-09-26T02:11:00,mfh,21.26
2023-09-26T02:12:00,mfh,21.47
2023-09-26T02:13:00,mfh,21.38
2023-09-26T02:14:00,mfh,21.36
2023-09-26T02:15:00,mfh,21.36
2023-09-26T02:16:00,mfh,20.87
2023-09-26T02:17:00,mfh,20.51
2023-09-26T02:18:00,mfh,20.66
2023-09-26T02:19:00,mfh,20.60
2023-09-26T02:20:00,mfh,21.21
2023-09-26T02:21:00,mfh,21.31
2023-09-26T02:22:00,mfh,21.38
2023-09-26T02:23:00,mfh,21.43
2023-09-26T02:24:00,mfh,21.40
2023-09-26T02:25:00,mfh,20.71
2023-09-26T02:26:00,mfh,20.77
2023-09-26T02:27:00,mfh,20.96
2023-09-26T02:28:00,mfh,21.58
2023-09-26T02:29:00,mfh,21.59
2023-09-26T02:30:00,mfh,21.30
2023-09-26T02:31:00,mfh,21.38
2023-09-26T02:32:00,mfh,21.94
2023-09-26T02:33:00,mfh,20.64
2023-09-26T02:34:00,mfh,20.64
2023-09-26T02:35:00,mfh,20.73
2023-09-26T02:36:00,mfh,20.58
2023-09-26T02:37:00,mfh,21.16
2023-09-26T02:38:00,mfh,21.16
2023-09-26T02:39:00,mfh,21.17
2023-09-26T02:40:00,mfh,21.47
2023-09-26T02:41:00,mfh,20.76
2023-09-26T02:42:00,mfh,20.81
2023-09-26T02:43:00,mfh,20.75
2023-09-26T02:44:00,mfh,20.87
2023-09-26T02:45:00,mfh,21.28
2023-09-26T02:46:00,mfh,21.30
2023-09-26T02:47:00,mfh,21.40
2023-09-26T02:48:00,mfh,21.15
2023-09-26T02:49:00,mfh,21.15
2023-09-26T02:50:00,mfh,20.45
2023-09-26T02:51:00,mfh,20.46
2023-09-26T02:52:00,mfh,20.73
2023-09-26T02:53:00,mfh,20.86
2023-09-26T02:54:00,mfh,22.41
2023-09-26T02:55:00,mfh,21.61
2023-09-26T02:56:00,mfh,21.57
2023-09-26T02:57:00,mfh,21.64
2023-09-26T02:58:00,mfh,21.68
2023-09-26T02:59:00,mfh,21.32
2023-09-26T03:00:00,mfh,20.98
2023-09-26T03:01:00,mfh,21.55
2023-09-26T03:02:00,mfh,21.73
2023-09-26T03:03:00,mfh,21.32
2023-09-26T03:04:00,mfh,21.81
2023-09-26T03:05:00,mfh,21.55
2023-09-26T03:06:00,mfh,20.85
2023-09-26T03:07:00,mfh,20.98
2023-09-26T03:08:00,mfh,20.75
2023-09-26T03:09:00,mfh,20.74
2023-09-26T03:10:00,mfh,21.34
2023-09-26T03:11:00,mfh,21.31
2023-09-26T03:12:00,mfh,21.33
2023-09-26T03:13:00,mfh,21.27
2023-09-26T03:14:00,mfh,21.38
2023-09-26T03:15:00,mfh,20.67
2023-09-26T03:16:00,mfh,20.73
2023-09-26T03:17:00,mfh,20.83
2023-09-26T03:18:00,mfh,21.07
2023-09-26T03:19:00,mfh,21.66
2023-09-26T03:20:00,mfh,21.33
2023-09-26T03:21:00,mfh,21.53
2023-09-26T03:22:00,mfh,21.44
2023-09-26T03:23:00,mfh,22.31
2023-09-26T03:24:00,mfh,20.70
2023-09-26T03:25:00,mfh,20.69
2023-09-26T03:26:00,mfh,20.65
2023-09-26T03:27:00,mfh,21.46
2023-09-26T03:28:00,mfh,21.38
2023-09-26T03:29:00,mfh,21.58
2023-09-26T03:30:00,mfh,21.46
2023-09-26T03:31:00,mfh,21.42
2023-09-26T03:32:00,mfh,20.70
2023-09-26T03:33:00,mfh,20.89
2023-09-26T03:34:00,mfh,20.84
2023-09-26T03:35:00,mfh,20.80
2023-09-26T03:36:00,mfh,21.39
2023-09-26T03:37:00,mfh,22.50
2023-09-26T03:38:00,mfh,21.55
2023-09-26T03:39:00,mfh,21.51
2023-09-26T03:40:00,mfh,21.78
2023-09-26T03:41:00,mfh,20.63
2023-09-26T03:42:00,mfh,20.57
2023-09-26T03:43:00,mfh,20.71
2023-09-26T03:44:00,mfh,21.31
2023-09-26T03:45:00,mfh,21.84
2023-09-26T03:46:00,mfh,21.32
2023-09-26T03:47:00,mfh,21.41
2023-09-26T03:48:00,mfh,22.26
2023-09-26T03:49:00,mfh,20.85
2023-09-26T03:50:00,mfh,20.83
2023-09-26T03:51:00,mfh,21.18
2023-09-26T03:52:00,mfh,20.72
2023-09-26T03:53:00,mfh,21.24
2023-09-26T03:54:00,mfh,21.30
2023-09-26T03:55:00,mfh,21.29
2023-09-26T03:56:00,mfh,21.61
2023-09-26T03:57:00,mfh,20.89
2023-09-26T03:58:00,mfh,20.69
2023-09-26T03:59:00,mfh,20.61
2023-09-26T04:00:00,mfh,20.66
2023-09-26T04:01:00,mfh,21.36
2023-09-26T04:02:00,mfh,21.40
2023-09-26T04:03:00,mfh,21.57
2023-09-26T04:04:00,mfh,21.62
2023-09-26T04:05:00,mfh,21.48
2023-09-26T04:06:00,mfh,20.70
2023-09-26T04:07:00,mfh,20.53
2023-09-26T04:08:00,mfh,20.74
2023-09-26T04:09:00,mfh,20.82
2023-09-26T04:10:00,mfh,21.50
2023-09-26T04:11:00,mfh,21.84
2023-09-26T04:12:00,mfh,21.43
2023-09-26T04:13:00,mfh,21.36
2023-09-26T04:14:00,mfh,20.57
2023-09-26T04:15:00,mfh,20.63
2023-09-26T04:16:00,mfh,20.67
2023-09-26T04:17:00,mfh,21.38
2023-09-26T04:18:00,mfh,21.20
2023-09-26T04:19:00,mfh,21.10
2023-09-26T04:20:00,mfh,21.22
2023-09-26T04:21:00,mfh,21.34
2023-09-26T04:22:00,mfh,20.82
2023-09-26T04:23:00,mfh,20.78
2023-09-26T04:24:00,mfh,21.38
2023-09-26T04:25:00,mfh,20.94
2023-09-26T04:26:00,mfh,21.62
2023-09-26T04:27:00,mfh,21.66
2023-09-26T04:28:00,mfh,22.37
2023-09-26T04:29:00,mfh,23.36
2023-09-26T04:30:00,mfh,22.56
2023-09-26T04:31:00,mfh,21.86
2023-09-26T04:32:00,mfh,21.90
2023-09-26T04:33:00,mfh,22.22
2023-09-26T04:34:00,mfh,23.47
2023-09-26T04:35:00,mfh,21.96
2023-09-26T04:36:00,mfh,21.71
2023-09-26T04:37:00,mfh,21.35
2023-09-26T04:38:00,mfh,21.18
2023-09-26T04:39:00,mfh,20.59
2023-09-26T04:40:00,mfh,20.55
2023-09-26T04:41:00,mfh,20.54
2023-09-26T04:42:00,mfh,20.56
2023-09-26T04:43:00,mfh,21.18
2023-09-26T04:44:00,mfh,21.26
2023-09-26T04:45:00,mfh,21.33
2023-09-26T04:46:00,mfh,21.28
2023-09-26T04:47:00,mfh,20.66
2023-09-26T04:48:00,mfh,20.77
2023-09-26T04:49:00,mfh,20.68
2023-09-26T04:50:00,mfh,20.67
2023-09-26T04:51:00,mfh,21.25
2023-09-26T04:52:00,mfh,21.38
2023-09-26T04:53:00,mfh,29.13
2023-09-26T04:54:00,mfh,29.47
2023-09-26T04:55:00,mfh,29.66
2023-09-26T04:56:00,mfh,28.89
2023-09-26T04:57:00,mfh,28.93
2023-09-26T04:58:00,mfh,28.87
2023-09-26T04:59:00,mfh,28.88
2023-09-26T05:00:00,mfh,29.48
2023-09-26T05:01:00,mfh,48.01
2023-09-26T05:02:00,mfh,50.78
2023-09-26T05:03:00,mfh,50.71
2023-09-26T05:04:00,mfh,50.62
2023-09-26T05:05:00,mfh,50.30
2023-09-26T05:06:00,mfh,50.41
2023-09-26T05:07:00,mfh,50.33
2023-09-26T05:08:00,mfh,51.07
2023-09-26T05:09:00,mfh,51.27
2023-09-26T05:10:00,mfh,51.54
2023-09-26T05:11:00,mfh,51.54
2023-09-26T05:12:00,mfh,52.19
2023-09-26T05:13:00,mfh,51.71
2023-09-26T05:14:00,mfh,51.63
2023-09-26T05:15:00,mfh,51.72
2023-09-26T05:16:00,mfh,51.95
2023-09-26T05:17:00,mfh,52.37
2023-09-26T05:18:00,mfh,52.32
2023-09-26T05:19:00,mfh,52.40
2023-09-26T05:20:00,mfh,52.81
2023-09-26T05:21:00,mfh,51.67
2023-09-26T05:22:00,mfh,52.45
2023-09-26T05:23:00,mfh,51.75
2023-09-26T05:24:00,mfh,51.86
2023-09-26T05:25:00,mfh,52.56
2023-09-26T05:26:00,mfh,52.30
2023-09-26T05:27:00,mfh,52.90
2023-09-26T05:28:00,mfh,52.78
2023-09-26T05:29:00,mfh,52.54
2023-09-26T05:30:00,mfh,52.10
2023-09-26T05:31:00,mfh,52.43
2023-09-26T05:32:00,mfh,52.45
2023-09-26T05:33:00,mfh,51.83
2023-09-26T05:34:00,mfh,54.02
2023-09-26T05:35:00,mfh,52.58
2023-09-26T05:36:00,mfh,52.52
2023-09-26T05:37:00,mfh,53.26
2023-09-26T05:38:00,mfh,52.96
2023-09-26T05:39:00,mfh,52.72
2023-09-26T05:40:00,mfh,53.19
2023-09-26T05:41:00,mfh,52.44
2023-09-26T05:42:00,mfh,52.98
2023-09-26T05:43:00,mfh,52.62
2023-09-26T05:44:00,mfh,52.85
2023-09-26T05:45:00,mfh,52.32
2023-09-26T05:46:00,mfh,51.59
2023-09-26T05:47:00,mfh,51.69
2023-09-26T05:48:00,mfh,51.92
2023-09-26T05:49:00,mfh,51.35
2023-09-26T05:50:00,mfh,51.07
2023-09-26T05:51:00,mfh,52.63
2023-09-26T05:52:00,mfh,52.41
2023-09-26T05:53:00,mfh,52.33
2023-09-26T05:54:00,mfh,52.29
2023-09-26T05:55:00,mfh,51.62
2023-09-26T05:56:00,mfh,51.47
2023-09-26T05:57:00,mfh,51.56
2023-09-26T05:58:00,mfh,51.54
2023-09-26T05:59:00,mfh,51.81
2023-09-26T06:00:00,mfh,51.75
2023-09-26T06:01:00,mfh,56.32
2023-09-26T06:02:00,mfh,56.27
2023-09-26T06:03:00,mfh,56.11
2023-09-26T06:04:00,mfh,56.05
2023-09-26T06:05:00,mfh,55.49
2023-09-26T06:06:00,mfh,55.69
2023-09-26T06:07:00,mfh,56.56
2023-09-26T06:08:00,mfh,56.66
2023-09-26T06:09:00,mfh,56.52
2023-09-26T06:10:00,mfh,56.62
2023-09-26T06:11:00,mfh,56.81
2023-09-26T06:12:00,mfh,56.76
2023-09-26T06:13:00,mfh,56.85
2023-09-26T06:14:00,mfh,56.93
2023-09-26T06:15:00,mfh,56.17
2023-09-26T06:16:00,mfh,56.51
2023-09-26T06:17:00,mfh,57.38
2023-09-26T06:18:00,mfh,57.20
2023-09-26T06:19:00,mfh,57.61
2023-09-26T06:20:00,mfh,57.79
2023-09-26T06:21:00,mfh,57.47
2023-09-26T06:22:00,mfh,58.04
2023-09-26T06:23:00,mfh,57.89
2023-09-26T06:24:00,mfh,58.16
2023-09-26T06:25:00,mfh,57.50
2023-09-26T06:26:00,mfh,57.55
2023-09-26T06:27:00,mfh,57.63
2023-09-26T06:28:00,mfh,58.72
2023-09-26T06:29:00,mfh,58.94
2023-09-26T06:30:00,mfh,58.99
2023-09-26T06:31:00,mfh,58.95
2023-09-26T06:32:00,mfh,59.57
2023-09-26T06:33:00,mfh,59.56
2023-09-26T06:34:00,mfh,72.06
2023-09-26T06:35:00,mfh,70.97
2023-09-26T06:36:00,mfh,71.12
2023-09-26T06:37:00,mfh,70.73
2023-09-26T06:38:00,mfh,70.38
2023-09-26T06:39:00,mfh,70.87
2023-09-26T06:40:00,mfh,70.64
2023-09-26T06:41:00,mfh,71.09
2023-09-26T06:42:00,mfh,71.16
2023-09-26T06:43:00,mfh,72.47
2023-09-26T06:44:00,mfh,72.57
2023-09-26T06:45:00,mfh,72.83
2023-09-26T06:46:00,mfh,74.27
2023-09-26T06:47:00,mfh,74.54
2023-09-26T06:48:00,mfh,74.09
2023-09-26T06:49:00,mfh,74.30
2023-09-26T06:50:00,mfh,74.55
2023-09-26T06:51:00,mfh,74.25
2023-09-26T06:52:00,mfh,69.87
2023-09-26T06:53:00,mfh,66.44
2023-09-26T06:54:00,mfh,67.03
2023-09-26T06:55:00,mfh,62.02
2023-09-26T06:56:00,mfh,62.12
2023-09-26T06:57:00,mfh,62.07
2023-09-26T06:58:00,mfh,62.47
2023-09-26T06:59:00,mfh,62.44
2023-09-26T07:00:00,mfh,61.64
2023-09-26T07:01:00,mfh,61.42
2023-09-26T07:02:00,mfh,61.39
2023-09-26T07:03:00,mfh,62.49
2023-09-26T07:04:00,mfh,62.59
2023-09-26T07:05:00,mfh,62.37
2023-09-26T07:06:00,mfh,64.38
2023-09-26T07:07:00,mfh,64.19
2023-09-26T07:08:00,mfh,63.71
2023-09-26T07:09:00,mfh,63.65
2023-09-26T07:10:00,mfh,63.85
2023-09-26T07:11:00,mfh,63.17
2023-09-26T07:12:00,mfh,63.61
2023-09-26T07:13:00,mfh,61.46
2023-09-26T07:14:00,mfh,61.26
2023-09-26T07:15:00,mfh,61.33
2023-09-26T07:16:00,mfh,62.07
2023-09-26T07:17:00,mfh,62.03
2023-09-26T07:18:00,mfh,61.11
2023-09-26T07:19:00,mfh,61.69
2023-09-26T07:20:00,mfh,61.20
2023-09-26T07:21:00,mfh,61.47
2023-09-26T07:22:00,mfh,61.06
2023-09-26T07:23:00,mfh,62.99
2023-09-26T07:24:00,mfh,62.26
2023-09-26T07:25:00,mfh,62.20
2023-09-26T07:26:00,mfh,60.42
2023-09-26T07:27:00,mfh,60.16
2023-09-26T07:28:00,mfh,60.80
2023-09-26T07:29:00,mfh,61.02
2023-09-26T07:30:00,mfh,61.68
2023-09-26T07:31:00,mfh,60.97
2023-09-26T07:32:00,mfh,61.52
2023-09-26T07:33:00,mfh,60.77
2023-09-26T07:34:00,mfh,61.59
2023-09-26T07:35:00,mfh,62.07
2023-09-26T07:36:00,mfh,62.08
2023-09-26T07:37:00,mfh,62.48
2023-09-26T07:38:00,mfh,61.96
2023-09-26T07:39:00,mfh,61.26
2023-09-26T07:40:00,mfh,61.18
2023-09-26T07:41:00,mfh,62.21
2023-09-26T07:42:00,mfh,61.84
2023-09-26T07:43:00,mfh,61.99
2023-09-26T07:44:00,mfh,61.89
2023-09-26T07:45:00,mfh,62.56
2023-09-26T07:46:00,mfh,61.99
2023-09-26T07:47:00,mfh,62.05
2023-09-26T07:48:00,mfh,62.11
2023-09-26T07:49:00,mfh,61.30
2023-09-26T07:50:00,mfh,60.51
2023-09-26T07:51:00,mfh,60.50
2023-09-26T07:52:00,mfh,61.23
2023-09-26T07:53:00,mfh,61.16
2023-09-26T07:54:00,mfh,61.34
2023-09-26T07:55:00,mfh,61.47
2023-09-26T07:56:00,mfh,61.80
2023-09-26T07:57:00,mfh,61.31
2023-09-26T07:58:00,mfh,61.36
2023-09-26T07:59:00,mfh,61.66
2023-09-26T08:00:00,mfh,61.81
2023-09-26T08:01:00,mfh,61.59
2023-09-26T08:02:00,mfh,61.56
2023-09-26T08:03:00,mfh,60.63
2023-09-26T08:04:00,mfh,61.16
2023-09-26T08:05:00,mfh,61.33
2023-09-26T08:06:00,mfh,62.28
2023-09-26T08:07:00,mfh,61.71
2023-09-26T08:08:00,mfh,61.57
2023-09-26T08:09:00,mfh,62.29
2023-09-26T08:10:00,mfh,61.65
2023-09-26T08:11:00,mfh,61.75
2023-09-26T08:12:00,mfh,61.61
2023-09-26T08:13:00,mfh,61.59
2023-09-26T08:14:00,mfh,61.46
2023-09-26T08:15:00,mfh,61.03
2023-09-26T08:16:00,mfh,61.03
2023-09-26T08:17:00,mfh,61.79
2023-09-26T08:18:00,mfh,61.74
2023-09-26T08:19:00,mfh,61.78
2023-09-26T08:20:00,mfh,61.80
2023-09-26T08:21:00,mfh,61.87
2023-09-26T08:22:00,mfh,61.78
2023-09-26T08:23:00,mfh,61.99
2023-09-26T08:24:00,mfh,61.88
2023-09-26T08:25:00,mfh,61.83
2023-09-26T08:26:00,mfh,62.67
2023-09-26T08:27:00,mfh,61.97
2023-09-26T08:28:00,mfh,61.81
2023-09-26T08:29:00,mfh,61.33
2023-09-26T08:30:00,mfh,61.62
2023-09-26T08:31:00,mfh,61.62
2023-09-26T08:32:00,mfh,73.53
2023-09-26T08:33:00,mfh,73.11
2023-09-26T08:34:00,mfh,73.83
2023-09-26T08:35:00,mfh,74.03
2023-09-26T08:36:00,mfh,73.74
2023-09-26T08:37:00,mfh,78.51
2023-09-26T08:38:00,mfh,78.01
2023-09-26T08:39:00,mfh,78.26
2023-09-26T08:40:00,mfh,76.14
2023-09-26T08:41:00,mfh,77.01
2023-09-26T08:42:00,mfh,77.14
2023-09-26T08:43:00,mfh,77.04
2023-09-26T08:44:00,mfh,76.01
2023-09-26T08:45:00,mfh,73.90
2023-09-26T08:46:00,mfh,72.84
2023-09-26T08:47:00,mfh,73.40
2023-09-26T08:48:00,mfh,73.71
2023-09-26T08:49:00,mfh,74.00
2023-09-26T08:50:00,mfh,73.97
2023-09-26T08:51:00,mfh,70.04
2023-09-26T08:52:00,mfh,71.61
2023-09-26T08:53:00,mfh,71.63
2023-09-26T08:54:00,mfh,67.41
2023-09-26T08:55:00,mfh,67.17
2023-09-26T08:56:00,mfh,68.39
2023-09-26T08:57:00,mfh,67.04
2023-09-26T08:58:00,mfh,62.92
2023-09-26T08:59:00,mfh,62.87
2023-09-26T09:00:00,mfh,62.78
2023-09-26T09:01:00,mfh,62.64
2023-09-26T09:02:00,mfh,60.34
2023-09-26T09:03:00,mfh,60.65
2023-09-26T09:04:00,mfh,60.08
2023-09-26T09:05:00,mfh,60.12
2023-09-26T09:06:00,mfh,59.59
2023-09-26T09:07:00,mfh,59.76
2023-09-26T09:08:00,mfh,60.42
2023-09-26T09:09:00,mfh,59.36
2023-09-26T09:10:00,mfh,59.62
2023-09-26T09:11:00,mfh,59.12
2023-09-26T09:12:00,mfh,59.11
2023-09-26T09:13:00,mfh,59.33
2023-09-26T09:14:00,mfh,59.93
2023-09-26T09:15:00,mfh,59.40
2023-09-26T09:16:00,mfh,59.86
2023-09-26T09:17:00,mfh,60.11
2023-09-26T09:18:00,mfh,60.09
2023-09-26T09:19:00,mfh,59.61
2023-09-26T09:20:00,mfh,59.48
2023-09-26T09:21:00,mfh,59.97
2023-09-26T09:22:00,mfh,59.07
2023-09-26T09:23:00,mfh,58.75
2023-09-26T09:24:00,mfh,59.22
2023-09-26T09:25:00,mfh,60.01
2023-09-26T09:26:00,mfh,59.42
2023-09-26T09:27:00,mfh,59.47
2023-09-26T09:28:00,mfh,59.53
2023-09-26T09:29:00,mfh,59.45
2023-09-26T09:30:00,mfh,59.50
2023-09-26T09:31:00,mfh,59.48
2023-09-26T09:32:00,mfh,58.51
2023-09-26T09:33:00,mfh,58.74
2023-09-26T09:34:00,mfh,59.00
2023-09-26T09:35:00,mfh,59.72
2023-09-26T09:36:00,mfh,59.76
2023-09-26T09:37:00,mfh,59.69
2023-09-26T09:38:00,mfh,65.08
2023-09-26T09:39:00,mfh,65.05
2023-09-26T09:40:00,mfh,65.04
2023-09-26T09:41:00,mfh,68.70
2023-09-26T09:42:00,mfh,72.23
2023-09-26T09:43:00,mfh,75.20
2023-09-26T09:44:00,mfh,75.21
2023-09-26T09:45:00,mfh,75.59
2023-09-26T09:46:00,mfh,76.22
2023-09-26T09:47:00,mfh,75.83
2023-09-26T09:48:00,mfh,75.71
2023-09-26T09:49:00,mfh,75.66
2023-09-26T09:50:00,mfh,75.61
2023-09-26T09:51:00,mfh,75.72
2023-09-26T09:52:00,mfh,75.96
2023-09-26T09:53:00,mfh,75.25
2023-09-26T09:54:00,mfh,76.02
2023-09-26T09:55:00,mfh,75.61
2023-09-26T09:56:00,mfh,75.36
2023-09-26T09:57:00,mfh,75.70
2023-09-26T09:58:00,mfh,75.83
2023-09-26T09:59:00,mfh,76.63
2023-09-26T10:00:00,mfh,76.45
2023-09-26T10:01:00,mfh,76.53
2023-09-26T10:02:00,mfh,75.58
2023-09-26T10:03:00,mfh,72.15
2023-09-26T10:04:00,mfh,72.39
2023-09-26T10:05:00,mfh,72.39
2023-09-26T10:06:00,mfh,73.94
2023-09-26T10:07:00,mfh,72.45
2023-09-26T10:08:00,mfh,72.32
2023-09-26T10:09:00,mfh,71.77
2023-09-26T10:10:00,mfh,72.12
2023-09-26T10:11:00,mfh,72.29
2023-09-26T10:12:00,mfh,72.64
2023-09-26T10:13:00,mfh,73.08
2023-09-26T10:14:00,mfh,72.14
2023-09-26T10:15:00,mfh,72.12
2023-09-26T10:16:00,mfh,72.20
2023-09-26T10:17:00,mfh,72.99
2023-09-26T10:18:00,mfh,73.12
2023-09-26T10:19:00,mfh,74.02
2023-09-26T10:20:00,mfh,75.70
2023-09-26T10:21:00,mfh,74.68
2023-09-26T10:22:00,mfh,74.07
2023-09-26T10:23:00,mfh,73.91
2023-09-26T10:24:00,mfh,69.04
2023-09-26T10:25:00,mfh,69.40
2023-09-26T10:26:00,mfh,69.38
2023-09-26T10:27:00,mfh,70.05
2023-09-26T10:28:00,mfh,69.91
2023-09-26T10:29:00,mfh,69.63
2023-09-26T10:30:00,mfh,70.01
2023-09-26T10:31:00,mfh,70.54
2023-09-26T10:32:00,mfh,69.89
2023-09-26T10:33:00,mfh,69.30
2023-09-26T10:34:00,mfh,70.10
2023-09-26T10:35:00,mfh,68.15
2023-09-26T10:36:00,mfh,68.36
2023-09-26T10:37:00,mfh,68.38
2023-09-26T10:38:00,mfh,68.64
2023-09-26T10:39:00,mfh,68.38
2023-09-26T10:40:00,mfh,68.68
2023-09-26T10:41:00,mfh,73.02
2023-09-26T10:42:00,mfh,72.76
2023-09-26T10:43:00,mfh,72.91
2023-09-26T10:44:00,mfh,72.23
2023-09-26T10:45:00,mfh,72.31
2023-09-26T10:46:00,mfh,75.67
2023-09-26T10:47:00,mfh,75.88
2023-09-26T10:48:00,mfh,76.09
2023-09-26T10:49:00,mfh,75.59
2023-09-26T10:50:00,mfh,75.46
2023-09-26T10:51:00,mfh,75.27
2023-09-26T10:52:00,mfh,75.21
2023-09-26T10:53:00,mfh,75.52
2023-09-26T10:54:00,mfh,75.57
2023-09-26T10:55:00,mfh,74.83
2023-09-26T10:56:00,mfh,74.73
2023-09-26T10:57:00,mfh,74.43
2023-09-26T10:58:00,mfh,74.82
2023-09-26T10:59:00,mfh,75.44
2023-09-26T11:00:00,mfh,75.05
2023-09-26T11:01:00,mfh,71.53
2023-09-26T11:02:00,mfh,68.60
2023-09-26T11:03:00,mfh,68.02
2023-09-26T11:04:00,mfh,67.76
2023-09-26T11:05:00,mfh,66.86
2023-09-26T11:06:00,mfh,66.66
2023-09-26T11:07:00,mfh,66.99
2023-09-26T11:08:00,mfh,64.91
2023-09-26T11:09:00,mfh,64.88
2023-09-26T11:10:00,mfh,64.56
2023-09-26T11:11:00,mfh,65.47
2023-09-26T11:12:00,mfh,64.93
2023-09-26T11:13:00,mfh,72.89
2023-09-26T11:14:00,mfh,72.94
2023-09-26T11:15:00,mfh,73.05
2023-09-26T11:16:00,mfh,72.70
2023-09-26T11:17:00,mfh,72.94
2023-09-26T11:18:00,mfh,73.01
2023-09-26T11:19:00,mfh,73.80
2023-09-26T11:20:00,mfh,73.94
2023-09-26T11:21:00,mfh,73.58
2023-09-26T11:22:00,mfh,81.98
2023-09-26T11:23:00,mfh,81.97
2023-09-26T11:24:00,mfh,81.71
2023-09-26T11:25:00,mfh,81.39
2023-09-26T11:26:00,mfh,80.99
2023-09-26T11:27:00,mfh,81.01
2023-09-26T11:28:00,mfh,81.47
2023-09-26T11:29:00,mfh,81.35
2023-09-26T11:30:00,mfh,81.15
2023-09-26T11:31:00,mfh,81.44
2023-09-26T11:32:00,mfh,81.27
2023-09-26T11:33:00,mfh,82.02
2023-09-26T11:34:00,mfh,82.06
2023-09-26T11:35:00,mfh,81.58
2023-09-26T11:36:00,mfh,81.71
2023-09-26T11:37:00,mfh,82.21
2023-09-26T11:38:00,mfh,81.49
2023-09-26T11:39:00,mfh,81.66
2023-09-26T11:40:00,mfh,81.78
2023-09-26T11:41:00,mfh,81.78
2023-09-26T11:42:00,mfh,81.85
2023-09-26T11:43:00,mfh,81.98
2023-09-26T11:44:00,mfh,82.69
2023-09-26T11:45:00,mfh,82.44
2023-09-26T11:46:00,mfh,81.98
2023-09-26T11:47:00,mfh,82.46
2023-09-26T11:48:00,mfh,81.67
2023-09-26T11:49:00,mfh,82.12
2023-09-26T11:50:00,mfh,82.03
2023-09-26T11:51:00,mfh,81.99
2023-09-26T11:52:00,mfh,82.27
2023-09-26T11:53:00,mfh,82.47
2023-09-26T11:54:00,mfh,82.58
2023-09-26T11:55:00,mfh,82.00
2023-09-26T11:56:00,mfh,81.73
2023-09-26T11:57:00,mfh,81.81
2023-09-26T11:58:00,mfh,81.87
2023-09-26T11:59:00,mfh,81.58
2023-09-26T12:00:00,mfh,82.05
2023-09-26T12:01:00,mfh,82.91
2023-09-26T12:02:00,mfh,82.12
2023-09-26T12:03:00,mfh,82.23
2023-09-26T12:04:00,mfh,79.06
2023-09-26T12:05:00,mfh,82.29
2023-09-26T12:06:00,mfh,81.95
2023-09-26T12:07:00,mfh,81.51
2023-09-26T12:08:00,mfh,81.61
2023-09-26T12:09:00,mfh,82.10
2023-09-26T12:10:00,mfh,81.72
2023-09-26T12:11:00,mfh,81.60
2023-09-26T12:12:00,mfh,81.82
2023-09-26T12:13:00,mfh,81.92
2023-09-26T12:14:00,mfh,82.07
2023-09-26T12:15:00,mfh,82.31
2023-09-26T12:16:00,mfh,82.15
2023-09-26T12:17:00,mfh,81.91
2023-09-26T12:18:00,mfh,82.61
2023-09-26T12:19:00,mfh,82.42
2023-09-26T12:20:00,mfh,83.51
2023-09-26T12:21:00,mfh,83.49
2023-09-26T12:22:00,mfh,83.31
2023-09-26T12:23:00,mfh,83.48
2023-09-26T12:24:00,mfh,83.86
2023-09-26T12:25:00,mfh,82.52
2023-09-26T12:26:00,mfh,82.57
2023-09-26T12:27:00,mfh,82.85
2023-09-26T12:28:00,mfh,82.42
2023-09-26T12:29:00,mfh,82.18
2023-09-26T12:30:00,mfh,82.35
2023-09-26T12:31:00,mfh,80.05
2023-09-26T12:32:00,mfh,76.09
2023-09-26T12:33:00,mfh,68.96
2023-09-26T12:34:00,mfh,68.76
2023-09-26T12:35:00,mfh,68.63
2023-09-26T12:36:00,mfh,68.68
2023-09-26T12:37:00,mfh,70.45
2023-09-26T12:38:00,mfh,68.40
2023-09-26T12:39:00,mfh,68.09
2023-09-26T12:40:00,mfh,69.58
2023-09-26T12:41:00,mfh,68.59
2023-09-26T12:42:00,mfh,70.51
2023-09-26T12:43:00,mfh,68.98
2023-09-26T12:44:00,mfh,69.45
2023-09-26T12:45:00,mfh,69.67
2023-09-26T12:46:00,mfh,69.13
2023-09-26T12:47:00,mfh,69.07
2023-09-26T12:48:00,mfh,68.02
2023-09-26T12:49:00,mfh,67.55
2023-09-26T12:50:00,mfh,69.00
2023-09-26T12:51:00,mfh,68.45
2023-09-26T12:52:00,mfh,68.23
2023-09-26T12:53:00,mfh,68.55
2023-09-26T12:54:00,mfh,68.82
2023-09-26T12:55:00,mfh,73.88
2023-09-26T12:56:00,mfh,74.15
2023-09-26T12:57:00,mfh,74.17
2023-09-26T12:58:00,mfh,74.18
2023-09-26T12:59:00,mfh,73.44
2023-09-26T13:00:00,mfh,73.10
2023-09-26T13:01:00,mfh,73.97
2023-09-26T13:02:00,mfh,73.25
2023-09-26T13:03:00,mfh,72.95
2023-09-26T13:04:00,mfh,73.25
2023-09-26T13:05:00,mfh,73.01
2023-09-26T13:06:00,mfh,73.19
2023-09-26T13:07:00,mfh,72.91
2023-09-26T13:08:00,mfh,72.69
2023-09-26T13:09:00,mfh,72.61
2023-09-26T13:10:00,mfh,72.64
2023-09-26T13:11:00,mfh,73.08
2023-09-26T13:12:00,mfh,73.12
2023-09-26T13:13:00,mfh,72.96
2023-09-26T13:14:00,mfh,73.01
2023-09-26T13:15:00,mfh,72.74
2023-09-26T13:16:00,mfh,72.92
2023-09-26T13:17:00,mfh,73.81
2023-09-26T13:18:00,mfh,73.36